Showing default

GEESAT 1-06, 52790

Orbit data source: Space-Track

GEESAT 1-06, 52790 is a payload satellite owned by GeeSpace (CN) in LEO that was launched on Thu, 02 Jun 2022 UTC via a CHANG ZHENG 2C launch vehicle from the Xichang Space Center, China (XSC). Payload-class satellites include a variety of spacecraft equipped with specific instruments for various scientific and technological missions. These include communications satellites like Starlink; space stations such as the ISS; scientific satellites like the Hubble; Earth observation satellites from companies like Planet Labs, Umbra, and HawkEye 360; GPS; miniature CubeSats for education and research; and military/defense satellites.

Loading next visibility...
Identifier
52790, 2022-058F
Orbit
LEO
Country
Flag of CNCN / PRC
Related business
Manufacturer
GWCG
Mission
Operational Commercial Navigation
Bus & Motor
GPS100, Unknown motor
Mass
130 kg wet, 130 kg dry
Launch date (UTC)
2022-06-02 (4 years ago)
Launch vehicle
CHANG ZHENG 2C
Launch site
Xichang Space Center, China (XSC)
Object type
Payload
Rocket body
Debris
Shape & HBR
Box + 2 Pan, 1.0 m
Radar Cross Section
0.833 m², Medium (>0.1 m² and < 1m²)

Expand to show TLE details & history
Last TLE update: 16 hours ago

TLE from 16 hours ago
0 GEESAT 1-06
1 52790U 22058F   25348.93854503  .00003736  00000-0  33741-3 0  9999
2 52790  50.0055 338.1687 0005150 105.3429 254.8084 14.97610296192559
Epoch: 2025-12-14T22:31Z
TLE epoch observation values (Epoch: 2025-12-14T22:31:30.290Z)
Latitude
-0.00008°
Longitude
-83.55185°
Altitude
575.77 km
Speed
7.574 km/s
True Right ascension
22h 32m 40s
True Declination
0° 00' 00"
Sunlit
Object was in daylight at epoch
Visualization orbit readout
Latitude
Unknown
Longitude
Unknown
Altitude
Unknown
Speed
Unknown
Apparent Right ascension
Unknown
Apparent Declination
Unknown
Sunlit
N/A
Visualization observer readout
Local Sidereal Time
13:22:57
Azimuth
Unknown
Elevation
Unknown
Doppler factor
Unknown
Orbital elements
Apogee altitude
578.625 km
Perigee altitude
571.464 km
Semi-major axis
6,953.182 km
Eccentricity
0.00052
Inclination
50.0055°
RAAN
338.1687°
Arg. of periapsis
105.3429°
True anomaly
254.75146°
Mean anomaly
254.8084°
Eccentric anomaly
254.77993°
Mean motion
3.74341 °/min
Orbital period
96.17 mins
BSTAR
0.00033741
Loading maneuver chart data...
Computing Atmospheric mass density...
Loading historical data...
Loading historical data...
Loading historical data...
Loading historical data...
Loading historical data...
Loading historical data...
Loading historical data...

Documentation

Showing up to 5 results
|